This is the latest recevied weather packets stored in our database for station/object KB7STN. If no packets are shown the sender has not sent any weather packets the latest 10 day(s).
| Time | Temp. | Humidity | Pressure | Rain* | Wind** | Luminosity | Snow |
|---|---|---|---|---|---|---|---|
| 1787959299 | 27.22° C | 40% | 1016.8 hPa | 0.25 mm | - | - | - |
| 1787958999 | 27.22° C | 37% | 1016.7 hPa | 0.76 mm | - | - | - |
| 1787958699 | 26.11° C | 39% | 1016.6 hPa | 0.76 mm | - | - | - |
| 1787958399 | 25° C | 42% | 1016.6 hPa | 0.76 mm | - | - | - |
| 1787958099 | 24.44° C | 44% | 1016.6 hPa | 0.76 mm | - | - | - |
| 1787957799 | 23.89° C | 48% | 1016.6 hPa | 0.76 mm | - | - | - |
| 1787957499 | 23.33° C | 51% | 1016.6 hPa | 0.76 mm | - | - | - |
| 1787957199 | 22.78° C | 53% | 1016.7 hPa | 0.76 mm | - | - | - |
| 1787956899 | 22.78° C | 54% | 1016.8 hPa | 0.76 mm | - | - | - |
| 1787956599 | 22.78° C | 54% | 1016.4 hPa | 0.76 mm | - | - | - |
| 1787956299 | 22.78° C | 54% | 1017.3 hPa | 0.76 mm | - | - | - |
| 1787955999 | 23.89° C | 51% | 1017.4 hPa | 0.76 mm | - | - | - |
| 1787955699 | 26.11° C | 48% | 1017.7 hPa | 0.51 mm | - | - | - |
| 1787955399 | 27.22° C | 43% | 1017.8 hPa | 0 mm | - | - | - |
| 1787955099 | 27.22° C | 36% | 1017 hPa | 0 mm | - | - | - |
| 1787954799 | 27.22° C | 38% | 1016.7 hPa | 0 mm | - | - | - |
| 1787954499 | 27.78° C | 37% | 1016.2 hPa | 0 mm | - | - | - |
| 1787954199 | 28.33° C | 34% | 1016.4 hPa | 0 mm | - | - | - |
| 1787953899 | 28.33° C | 32% | 1016.3 hPa | 0 mm | - | - | - |
| 1787953599 | 28.89° C | 32% | 1016.1 hPa | 0 mm | - | - | - |
| 1787953299 | 28.89° C | 31% | 1016.1 hPa | 0 mm | - | - | - |
| 1787952999 | 28.89° C | 31% | 1016.2 hPa | 0 mm | - | - | - |
| 1787952699 | 28.89° C | 30% | 1016.5 hPa | 0 mm | - | - | - |
| 1787952399 | 28.89° C | 31% | 1016.3 hPa | 0 mm | - | - | - |
| 1787952107 | 28.89° C | 31% | 1016.4 hPa | 0 mm | - | - | - |
* Rain latest hour (hover to see other rain measurements)
** Current wind speed in m/s (hover to see current wind gust speed)